Time,TemperatureF,DewpointF,PressureIn,WindDirection,WindDirectionDegrees,WindSpeedMPH,WindSpeedGustMPH,Humidity,HourlyPrecipIn,Conditions,Clouds,dailyrainin,SoftwareType,DateUTC
2013-01-08 00:00:00,10.1,-5.7,30.30,NNW,338,0.0,0.2,48,0.00,,,0.00,WUHU216HW,2013-01-08 05:00:00,
2013-01-08 00:03:00,10.1,-5.7,30.30,NNE,23,0.0,1.1,48,0.00,,,0.00,WUHU216HW,2013-01-08 05:03:00,
2013-01-08 00:08:00,9.9,-5.9,30.30,SSW,203,0.0,1.1,48,0.00,,,0.00,WUHU216HW,2013-01-08 05:08:00,
2013-01-08 00:13:00,9.9,-6.4,30.29,WNW,293,0.0,0.2,47,0.00,,,0.00,WUHU216HW,2013-01-08 05:13:00,
2013-01-08 00:18:00,9.9,-6.4,30.29,NNW,338,0.0,0.2,47,0.00,,,0.00,WUHU216HW,2013-01-08 05:18:00,
2013-01-08 00:23:00,9.9,-6.4,30.29,NNW,338,0.0,0.0,47,0.00,,,0.00,WUHU216HW,2013-01-08 05:23:00,
2013-01-08 00:28:00,9.7,-6.6,30.29,NNE,23,0.0,0.0,47,0.00,,,0.00,WUHU216HW,2013-01-08 05:28:00,
2013-01-08 00:33:00,9.9,-6.9,30.29,West,270,0.0,0.0,46,0.00,,,0.00,WUHU216HW,2013-01-08 05:33:00,
2013-01-08 00:38:00,10.1,-7.6,30.29,NNE,23,0.0,0.2,44,0.00,,,0.00,WUHU216HW,2013-01-08 05:38:00,
2013-01-08 00:43:00,10.4,-8.3,30.29,NW,315,0.0,0.2,42,0.00,,,0.00,WUHU216HW,2013-01-08 05:43:00,
2013-01-08 00:48:00,10.4,-8.3,30.30,North,0,0.2,1.1,42,0.00,,,0.00,WUHU216HW,2013-01-08 05:48:00,
2013-01-08 00:53:00,10.6,-9.0,30.29,WNW,293,0.0,1.1,40,0.00,,,0.00,WUHU216HW,2013-01-08 05:53:00,
2013-01-08 00:58:00,10.8,-10.0,30.29,South,180,0.0,0.2,38,0.00,,,0.00,WUHU216HW,2013-01-08 05:58:00,
2013-01-08 01:03:00,11.0,-9.8,30.29,NE,45,0.0,0.7,38,0.00,,,0.00,WUHU216HW,2013-01-08 06:03:00,
2013-01-08 01:08:00,11.2,-10.3,30.29,SW,225,0.0,0.7,37,0.00,,,0.00,WUHU216HW,2013-01-08 06:08:00,
2013-01-08 01:13:00,11.2,-10.3,30.29,West,270,0.0,0.0,37,0.00,,,0.00,WUHU216HW,2013-01-08 06:13:00,
2013-01-08 01:18:00,11.2,-10.8,30.29,WSW,248,0.0,0.0,36,0.00,,,0.00,WUHU216HW,2013-01-08 06:18:00,
2013-01-08 01:23:00,11.3,-10.1,30.28,NNW,338,0.0,0.0,37,0.00,,,0.00,WUHU216HW,2013-01-08 06:23:00,
2013-01-08 01:28:00,11.5,-10.5,30.29,WSW,248,0.0,0.0,36,0.00,,,0.00,WUHU216HW,2013-01-08 06:28:00,
2013-01-08 01:33:00,11.5,-10.5,30.28,WSW,248,0.0,0.0,36,0.00,,,0.00,WUHU216HW,2013-01-08 06:33:00,
2013-01-08 01:38:00,11.3,-10.1,30.28,NW,315,0.0,0.0,37,0.00,,,0.00,WUHU216HW,2013-01-08 06:38:00,
2013-01-08 01:43:00,11.3,-10.1,30.28,North,0,0.0,0.4,37,0.00,,,0.00,WUHU216HW,2013-01-08 06:43:00,
2013-01-08 01:48:00,11.5,-10.5,30.28,North,0,0.0,0.4,36,0.00,,,0.00,WUHU216HW,2013-01-08 06:48:00,
2013-01-08 01:53:00,11.5,-10.5,30.29,WSW,248,0.0,0.0,36,0.00,,,0.00,WUHU216HW,2013-01-08 06:53:00,
2013-01-08 01:58:00,11.3,-10.1,30.28,WSW,248,0.0,0.0,37,0.00,,,0.00,WUHU216HW,2013-01-08 06:58:00,
2013-01-08 02:03:00,11.2,-9.1,30.28,WSW,248,0.0,0.0,39,0.00,,,0.00,WUHU216HW,2013-01-08 07:03:00,
2013-01-08 02:08:00,11.2,-9.7,30.28,West,270,0.0,0.0,38,0.00,,,0.00,WUHU216HW,2013-01-08 07:08:00,
2013-01-08 02:13:00,11.5,-10.5,30.28,NNW,338,0.0,0.0,36,0.00,,,0.00,WUHU216HW,2013-01-08 07:13:00,
2013-01-08 02:18:00,11.9,-10.2,30.28,WSW,248,0.0,0.0,36,0.00,,,0.00,WUHU216HW,2013-01-08 07:18:00,
2013-01-08 02:23:00,12.1,-11.1,30.28,NW,315,0.0,0.0,34,0.00,,,0.00,WUHU216HW,2013-01-08 07:23:00,
2013-01-08 02:28:00,12.4,-12.0,30.28,North,0,0.0,0.0,32,0.00,,,0.00,WUHU216HW,2013-01-08 07:28:00,
2013-01-08 02:33:00,12.8,-12.2,30.28,North,0,0.0,0.2,31,0.00,,,0.00,WUHU216HW,2013-01-08 07:33:00,
2013-01-08 02:38:00,13.0,-13.5,30.27,NNE,23,0.0,0.2,29,0.00,,,0.00,WUHU216HW,2013-01-08 07:38:00,
2013-01-08 02:43:00,13.1,-14.8,30.27,North,0,0.0,0.0,27,0.00,,,0.00,WUHU216HW,2013-01-08 07:43:00,
2013-01-08 02:48:00,13.5,-17.7,30.27,North,0,0.4,0.4,23,0.00,,,0.00,WUHU216HW,2013-01-08 07:48:00,
2013-01-08 02:53:00,14.4,-29.7,30.27,North,0,0.0,0.4,12,0.00,,,0.00,WUHU216HW,2013-01-08 07:53:00,
2013-01-08 02:58:00,14.4,-25.8,30.27,North,0,0.0,0.4,15,0.00,,,0.00,WUHU216HW,2013-01-08 07:58:00,
2013-01-08 03:03:00,14.4,-24.5,30.27,North,0,0.0,0.2,16,0.00,,,0.00,WUHU216HW,2013-01-08 08:03:00,
2013-01-08 03:08:00,14.2,-23.4,30.27,North,0,0.0,0.0,17,0.00,,,0.00,WUHU216HW,2013-01-08 08:08:00,
2013-01-08 03:13:00,14.0,-18.0,30.27,North,0,0.0,0.0,22,0.00,,,0.00,WUHU216HW,2013-01-08 08:13:00,
2013-01-08 03:18:00,13.5,-15.4,30.27,North,0,0.0,0.2,26,0.00,,,0.00,WUHU216HW,2013-01-08 08:18:00,
2013-01-08 03:23:00,13.7,-16.7,30.27,North,0,0.0,0.2,24,0.00,,,0.00,WUHU216HW,2013-01-08 08:23:00,
2013-01-08 03:28:00,13.9,-18.2,30.26,NNE,23,0.0,0.4,22,0.00,,,0.00,WUHU216HW,2013-01-08 08:28:00,
2013-01-08 03:33:00,13.9,-17.4,30.26,North,0,0.0,0.4,23,0.00,,,0.00,WUHU216HW,2013-01-08 08:33:00,
2013-01-08 03:38:00,13.7,-15.2,30.26,North,0,0.0,0.2,26,0.00,,,0.00,WUHU216HW,2013-01-08 08:38:00,
2013-01-08 03:43:00,13.1,-14.1,30.26,NNW,338,0.0,0.2,28,0.00,,,0.00,WUHU216HW,2013-01-08 08:43:00,
2013-01-08 03:48:00,12.8,-12.9,30.26,SW,225,0.0,0.0,30,0.00,,,0.00,WUHU216HW,2013-01-08 08:48:00,
2013-01-08 03:53:00,12.6,-12.9,30.26,West,270,0.0,0.0,30,0.00,,,0.00,WUHU216HW,2013-01-08 08:53:00,
2013-01-08 03:58:00,12.6,-12.4,30.26,WSW,248,0.0,0.0,31,0.00,,,0.00,WUHU216HW,2013-01-08 08:58:00,
2013-01-08 04:03:00,12.6,-12.9,30.25,ESE,113,0.0,0.0,30,0.00,,,0.00,WUHU216HW,2013-01-08 09:03:00,
2013-01-08 04:08:00,12.6,-14.6,30.25,North,0,0.0,0.7,28,0.00,,,0.00,WUHU216HW,2013-01-08 09:08:00,
2013-01-08 04:13:00,12.6,-13.8,30.25,North,0,0.0,0.7,29,0.00,,,0.00,WUHU216HW,2013-01-08 09:13:00,
2013-01-08 04:18:00,12.4,-13.1,30.24,NNE,23,0.0,0.0,30,0.00,,,0.00,WUHU216HW,2013-01-08 09:18:00,
2013-01-08 04:23:00,12.2,-13.3,30.24,North,0,0.0,0.0,30,0.00,,,0.00,WUHU216HW,2013-01-08 09:23:00,
2013-01-08 04:28:00,12.6,-16.2,30.24,NW,315,0.0,0.4,26,0.00,,,0.00,WUHU216HW,2013-01-08 09:28:00,
2013-01-08 04:33:00,12.6,-16.2,30.23,NNW,338,0.0,0.4,26,0.00,,,0.00,WUHU216HW,2013-01-08 09:33:00,
2013-01-08 04:38:00,12.4,-14.8,30.23,North,0,0.0,0.0,28,0.00,,,0.00,WUHU216HW,2013-01-08 09:38:00,
2013-01-08 04:43:00,12.4,-13.9,30.23,NNW,338,0.0,0.2,29,0.00,,,0.00,WUHU216HW,2013-01-08 09:43:00,
2013-01-08 04:48:00,12.2,-13.3,30.23,WSW,248,0.0,0.2,30,0.00,,,0.00,WUHU216HW,2013-01-08 09:48:00,
2013-01-08 04:53:00,11.9,-13.0,30.23,NNW,338,0.0,0.4,31,0.00,,,0.00,WUHU216HW,2013-01-08 09:53:00,
2013-01-08 04:58:00,11.9,-13.0,30.23,WNW,293,0.0,0.4,31,0.00,,,0.00,WUHU216HW,2013-01-08 09:58:00,
2013-01-08 05:03:00,11.7,-12.7,30.23,North,0,0.0,0.4,32,0.00,,,0.00,WUHU216HW,2013-01-08 10:03:00,
2013-01-08 05:08:00,11.9,-13.0,30.23,SSW,203,0.0,0.2,31,0.00,,,0.00,WUHU216HW,2013-01-08 10:08:00,
2013-01-08 05:13:00,11.9,-13.7,30.23,SSW,203,0.0,0.2,30,0.00,,,0.00,WUHU216HW,2013-01-08 10:13:00,
2013-01-08 05:18:00,11.9,-13.7,30.23,SSW,203,0.0,0.2,30,0.00,,,0.00,WUHU216HW,2013-01-08 10:18:00,
2013-01-08 05:23:00,11.7,-13.2,30.23,SE,135,0.0,0.2,31,0.00,,,0.00,WUHU216HW,2013-01-08 10:23:00,
2013-01-08 05:28:00,11.7,-13.2,30.22,SSW,203,0.0,0.4,31,0.00,,,0.00,WUHU216HW,2013-01-08 10:28:00,
2013-01-08 05:33:00,11.5,-12.8,30.23,SSE,158,0.0,0.4,32,0.00,,,0.00,WUHU216HW,2013-01-08 10:33:00,
2013-01-08 05:38:00,11.3,-12.9,30.22,SW,225,0.0,0.2,32,0.00,,,0.00,WUHU216HW,2013-01-08 10:38:00,
2013-01-08 05:43:00,11.9,-16.0,30.22,NE,45,0.0,0.0,27,0.00,,,0.00,WUHU216HW,2013-01-08 10:43:00,
2013-01-08 05:48:00,12.6,-24.7,30.23,North,0,0.4,0.4,17,0.00,,,0.00,WUHU216HW,2013-01-08 10:48:00,
2013-01-08 05:52:00,12.8,-22.0,30.23,North,0,0.0,0.7,19,0.00,,,0.00,WUHU216HW,2013-01-08 10:52:00,
2013-01-08 05:57:00,12.6,-20.9,30.23,NNE,23,0.0,0.7,20,0.00,,,0.00,WUHU216HW,2013-01-08 10:57:00,
2013-01-08 06:03:00,12.6,-19.3,30.23,West,270,0.0,0.2,22,0.00,,,0.00,WUHU216HW,2013-01-08 11:03:00,
2013-01-08 06:08:00,12.2,-17.3,30.23,WNW,293,0.0,0.2,25,0.00,,,0.00,WUHU216HW,2013-01-08 11:08:00,
2013-01-08 06:13:00,11.9,-15.2,30.23,West,270,0.0,0.0,28,0.00,,,0.00,WUHU216HW,2013-01-08 11:13:00,
2013-01-08 06:17:00,11.5,-13.9,30.23,NW,315,0.0,0.2,30,0.00,,,0.00,WUHU216HW,2013-01-08 11:17:00,
2013-01-08 06:22:00,11.9,-16.0,30.23,North,0,0.0,0.2,27,0.00,,,0.00,WUHU216HW,2013-01-08 11:22:00,
2013-01-08 06:27:00,12.6,-26.0,30.23,North,0,0.0,0.2,16,0.00,,,0.00,WUHU216HW,2013-01-08 11:27:00,
2013-01-08 06:32:00,12.8,-24.6,30.23,West,270,0.0,0.2,17,0.00,,,0.00,WUHU216HW,2013-01-08 11:32:00,
2013-01-08 06:37:00,12.6,-20.2,30.23,NNE,23,0.0,0.9,21,0.00,,,0.00,WUHU216HW,2013-01-08 11:37:00,
2013-01-08 06:42:00,12.8,-25.9,30.23,North,0,0.2,0.9,16,0.00,,,0.00,WUHU216HW,2013-01-08 11:42:00,
2013-01-08 06:47:00,13.1,-28.2,30.23,NNE,23,0.7,0.9,14,0.00,,,0.00,WUHU216HW,2013-01-08 11:47:00,
2013-01-08 06:52:00,13.0,-24.5,30.23,North,0,0.0,0.9,17,0.00,,,0.00,WUHU216HW,2013-01-08 11:52:00,
2013-01-08 06:57:00,12.2,-18.9,30.23,North,0,0.0,0.7,23,0.00,,,0.00,WUHU216HW,2013-01-08 11:57:00,
2013-01-08 07:02:00,11.9,-16.0,30.23,NNE,23,0.0,0.0,27,0.00,,,0.00,WUHU216HW,2013-01-08 12:02:00,
2013-01-08 07:07:00,12.1,-19.8,30.23,NNE,23,0.0,0.0,22,0.00,,,0.00,WUHU216HW,2013-01-08 12:07:00,
2013-01-08 07:12:00,12.1,-20.6,30.24,North,0,0.2,0.2,21,0.00,,,0.00,WUHU216HW,2013-01-08 12:12:00,
2013-01-08 07:17:00,12.6,-27.4,30.24,North,0,0.0,0.2,15,0.00,,,0.00,WUHU216HW,2013-01-08 12:17:00,
2013-01-08 07:22:00,12.6,-24.7,30.25,North,0,0.0,0.2,17,0.00,,,0.00,WUHU216HW,2013-01-08 12:22:00,
2013-01-08 07:27:00,12.2,-20.4,30.25,North,0,0.0,0.0,21,0.00,,,0.00,WUHU216HW,2013-01-08 12:27:00,
2013-01-08 07:32:00,12.1,-19.0,30.25,North,0,0.0,0.0,23,0.00,,,0.00,WUHU216HW,2013-01-08 12:32:00,
2013-01-08 07:37:00,11.9,-18.3,30.25,North,0,0.0,0.0,24,0.00,,,0.00,WUHU216HW,2013-01-08 12:37:00,
2013-01-08 07:42:00,11.9,-16.8,30.25,WNW,293,0.0,0.0,26,0.00,,,0.00,WUHU216HW,2013-01-08 12:42:00,
2013-01-08 07:47:00,11.7,-16.2,30.25,NW,315,0.0,0.0,27,0.00,,,0.00,WUHU216HW,2013-01-08 12:47:00,
2013-01-08 07:52:00,11.7,-16.2,30.25,NW,315,0.0,0.0,27,0.00,,,0.00,WUHU216HW,2013-01-08 12:52:00,
2013-01-08 07:57:00,11.9,-16.8,30.25,WSW,248,0.0,0.0,26,0.00,,,0.00,WUHU216HW,2013-01-08 12:57:00,
2013-01-08 08:02:00,12.2,-17.3,30.25,NNE,23,0.7,0.7,25,0.00,,,0.00,WUHU216HW,2013-01-08 13:02:00,
2013-01-08 08:07:00,13.3,-30.6,30.25,North,0,0.0,1.8,12,0.00,,,0.00,WUHU216HW,2013-01-08 13:07:00,
2013-01-08 08:12:00,13.7,-27.7,30.25,WSW,248,0.4,1.8,14,0.00,,,0.00,WUHU216HW,2013-01-08 13:12:00,
2013-01-08 08:17:00,14.4,-32.3,30.25,WNW,293,0.4,1.1,10,0.00,,,0.00,WUHU216HW,2013-01-08 13:17:00,
2013-01-08 08:22:00,15.1,-31.7,30.25,NNW,338,1.1,3.4,9,0.00,,,0.00,WUHU216HW,2013-01-08 13:22:00,
2013-01-08 08:27:00,16.0,-30.9,30.25,WSW,248,1.8,4.0,6,0.00,,,0.00,WUHU216HW,2013-01-08 13:27:00,
2013-01-08 08:32:00,17.1,-30.1,30.25,WNW,293,1.1,4.0,1,0.00,,,0.00,WUHU216HW,2013-01-08 13:32:00,
2013-01-08 08:37:00,19.1,-28.5,30.25,NNW,338,6.3,6.9,1,0.00,,,0.00,WUHU216HW,2013-01-08 13:37:00,
2013-01-08 08:42:00,20.5,-27.5,30.25,NNW,338,0.2,6.9,1,0.00,,,0.00,WUHU216HW,2013-01-08 13:42:00,
2013-01-08 08:47:00,21.6,-26.7,30.25,NNW,338,6.0,6.3,1,0.00,,,0.00,WUHU216HW,2013-01-08 13:47:00,
2013-01-08 08:52:00,22.7,-25.8,30.25,NNW,338,3.1,6.0,1,0.00,,,0.00,WUHU216HW,2013-01-08 13:52:00,
2013-01-08 08:57:00,24.3,-24.6,30.25,WNW,293,4.3,6.0,1,0.00,,,0.00,WUHU216HW,2013-01-08 13:57:00,
2013-01-08 09:02:00,25.6,-23.6,30.25,NW,315,4.7,4.7,1,0.00,,,0.00,WUHU216HW,2013-01-08 14:02:00,
2013-01-08 09:07:00,26.8,-22.5,30.25,WNW,293,5.6,5.6,1,0.00,,,0.00,WUHU216HW,2013-01-08 14:07:00,
2013-01-08 09:12:00,28.1,-21.5,30.25,North,0,1.8,5.6,1,0.00,,,0.00,WUHU216HW,2013-01-08 14:12:00,
2013-01-08 09:17:00,30.1,-20.0,30.25,WNW,293,0.7,5.8,1,0.00,,,0.00,WUHU216HW,2013-01-08 14:17:00,
2013-01-08 09:22:00,31.3,-18.9,30.25,North,0,2.5,5.8,1,0.00,,,0.00,WUHU216HW,2013-01-08 14:22:00,
2013-01-08 09:27:00,32.0,-18.4,30.25,NNE,23,2.5,5.4,6,0.00,,,0.00,WUHU216HW,2013-01-08 14:27:00,
2013-01-08 09:32:00,32.0,0.8,30.25,North,0,3.6,7.6,26,0.00,,,0.00,WUHU216HW,2013-01-08 14:32:00,
2013-01-08 09:37:00,32.9,-2.9,30.25,NW,315,4.7,7.6,21,0.00,,,0.00,WUHU216HW,2013-01-08 14:37:00,
2013-01-08 09:42:00,33.1,8.8,30.25,WNW,293,2.9,10.5,36,0.00,,,0.00,WUHU216HW,2013-01-08 14:42:00,
2013-01-08 09:47:00,33.7,12.4,30.25,West,270,5.4,10.5,41,0.00,,,0.00,WUHU216HW,2013-01-08 14:47:00,
2013-01-08 09:52:00,34.2,11.8,30.25,North,0,3.4,9.4,39,0.00,,,0.00,WUHU216HW,2013-01-08 14:52:00,
2013-01-08 09:57:00,34.9,13.6,30.25,North,0,3.1,8.3,41,0.00,,,0.00,WUHU216HW,2013-01-08 14:57:00,
2013-01-08 10:02:00,35.6,15.2,30.25,North,0,4.9,6.9,43,0.00,,,0.00,WUHU216HW,2013-01-08 15:02:00,
2013-01-08 10:07:00,36.0,19.3,30.25,WNW,293,6.9,7.2,50,0.00,,,0.00,WUHU216HW,2013-01-08 15:07:00,
2013-01-08 10:12:00,36.0,18.2,30.24,SW,225,5.1,7.2,48,0.00,,,0.00,WUHU216HW,2013-01-08 15:12:00,
2013-01-08 10:17:00,36.4,19.5,30.24,SW,225,1.6,7.2,50,0.00,,,0.00,WUHU216HW,2013-01-08 15:17:00,
2013-01-08 10:22:00,37.1,21.1,30.24,NNE,23,2.5,7.2,52,0.00,,,0.00,WUHU216HW,2013-01-08 15:22:00,
2013-01-08 10:27:00,37.4,19.4,30.24,NW,315,6.9,7.6,48,0.00,,,0.00,WUHU216HW,2013-01-08 15:27:00,
2013-01-08 10:32:00,38.2,20.6,30.24,WSW,248,3.4,7.6,49,0.00,,,0.00,WUHU216HW,2013-01-08 15:32:00,
2013-01-08 10:37:00,39.1,22.0,30.24,NW,315,5.4,7.2,50,0.00,,,0.00,WUHU216HW,2013-01-08 15:37:00,
2013-01-08 10:42:00,39.8,23.5,30.23,WNW,293,4.9,8.7,52,0.00,,,0.00,WUHU216HW,2013-01-08 15:42:00,
2013-01-08 10:47:00,40.5,25.5,30.23,WSW,248,4.7,8.7,55,0.00,,,0.00,WUHU216HW,2013-01-08 15:47:00,
2013-01-08 10:52:00,40.9,24.9,30.23,North,0,4.0,8.9,53,0.00,,,0.00,WUHU216HW,2013-01-08 15:52:00,
2013-01-08 10:57:00,41.2,25.3,30.23,NNW,338,1.8,8.9,53,0.00,,,0.00,WUHU216HW,2013-01-08 15:57:00,
2013-01-08 11:02:00,41.9,26.0,30.23,North,0,7.4,8.5,53,0.00,,,0.00,WUHU216HW,2013-01-08 16:02:00,
2013-01-08 11:07:00,42.1,26.2,30.23,WSW,248,2.2,8.5,53,0.00,,,0.00,WUHU216HW,2013-01-08 16:07:00,
2013-01-08 11:12:00,42.8,26.8,30.23,NNE,23,6.3,7.4,53,0.00,,,0.00,WUHU216HW,2013-01-08 16:12:00,
2013-01-08 11:17:00,42.7,26.6,30.22,NNW,338,3.4,9.2,53,0.00,,,0.00,WUHU216HW,2013-01-08 16:17:00,
2013-01-08 11:22:00,42.5,26.6,30.22,NNW,338,4.5,9.4,53,0.00,,,0.00,WUHU216HW,2013-01-08 16:22:00,
2013-01-08 11:27:00,42.7,26.6,30.22,North,0,1.8,9.4,53,0.00,,,0.00,WUHU216HW,2013-01-08 16:27:00,
2013-01-08 11:32:00,43.2,27.2,30.22,NW,315,8.9,8.9,53,0.00,,,0.00,WUHU216HW,2013-01-08 16:32:00,
2013-01-08 11:37:00,43.2,27.2,30.22,SSW,203,3.4,8.9,53,0.00,,,0.00,WUHU216HW,2013-01-08 16:37:00,
2013-01-08 11:42:00,43.0,27.0,30.21,WNW,293,2.5,8.9,53,0.00,,,0.00,WUHU216HW,2013-01-08 16:42:00,
2013-01-08 11:47:00,43.4,27.4,30.21,West,270,3.1,7.6,53,0.00,,,0.00,WUHU216HW,2013-01-08 16:47:00,
2013-01-08 11:52:00,43.6,27.1,30.21,WNW,293,6.3,7.6,52,0.00,,,0.00,WUHU216HW,2013-01-08 16:52:00,
2013-01-08 11:57:00,43.4,27.4,30.21,WNW,293,2.5,8.5,53,0.00,,,0.00,WUHU216HW,2013-01-08 16:57:00,
2013-01-08 12:02:00,43.6,27.6,30.21,NW,315,1.3,8.5,53,0.00,,,0.00,WUHU216HW,2013-01-08 17:02:00,
2013-01-08 12:07:00,43.6,27.1,30.21,WNW,293,5.6,7.4,52,0.00,,,0.00,WUHU216HW,2013-01-08 17:07:00,
2013-01-08 12:12:00,43.9,27.5,30.21,North,0,1.6,7.4,52,0.00,,,0.00,WUHU216HW,2013-01-08 17:12:00,
2013-01-08 12:17:00,44.3,27.7,30.20,ENE,68,4.7,6.3,52,0.00,,,0.00,WUHU216HW,2013-01-08 17:17:00,
2013-01-08 12:22:00,44.8,27.8,30.20,North,0,1.3,5.4,51,0.00,,,0.00,WUHU216HW,2013-01-08 17:22:00,
2013-01-08 12:27:00,44.8,26.8,30.20,West,270,1.1,9.2,49,0.00,,,0.00,WUHU216HW,2013-01-08 17:27:00,
2013-01-08 12:32:00,45.0,27.6,30.20,WNW,293,3.8,9.2,50,0.00,,,0.00,WUHU216HW,2013-01-08 17:32:00,
2013-01-08 12:37:00,45.0,27.6,30.20,NNW,338,3.6,10.3,50,0.00,,,0.00,WUHU216HW,2013-01-08 17:37:00,
2013-01-08 12:42:00,45.0,27.6,30.20,WNW,293,0.4,10.3,50,0.00,,,0.00,WUHU216HW,2013-01-08 17:42:00,
2013-01-08 12:47:00,44.8,27.8,30.20,West,270,3.8,4.5,51,0.00,,,0.00,WUHU216HW,2013-01-08 17:47:00,
2013-01-08 12:52:00,44.3,27.3,30.20,SW,225,1.1,6.5,51,0.00,,,0.00,WUHU216HW,2013-01-08 17:52:00,
2013-01-08 12:57:00,43.9,27.0,30.20,West,270,11.4,11.4,51,0.00,,,0.00,WUHU216HW,2013-01-08 17:57:00,
2013-01-08 13:02:00,43.9,27.0,30.20,WSW,248,2.5,11.4,51,0.00,,,0.00,WUHU216HW,2013-01-08 18:02:00,
2013-01-08 13:07:00,43.9,27.0,30.20,SSE,158,2.2,11.4,51,0.00,,,0.00,WUHU216HW,2013-01-08 18:07:00,
2013-01-08 13:12:00,43.7,26.4,30.19,SW,225,2.0,6.9,50,0.00,,,0.00,WUHU216HW,2013-01-08 18:12:00,
2013-01-08 13:17:00,43.9,27.0,30.19,WNW,293,3.8,3.8,51,0.00,,,0.00,WUHU216HW,2013-01-08 18:17:00,
2013-01-08 13:22:00,43.9,27.0,30.19,North,0,0.2,5.8,51,0.00,,,0.00,WUHU216HW,2013-01-08 18:22:00,
2013-01-08 13:27:00,43.9,26.6,30.19,SW,225,6.3,8.7,50,0.00,,,0.00,WUHU216HW,2013-01-08 18:27:00,
2013-01-08 13:32:00,43.9,27.0,30.19,West,270,1.8,8.7,51,0.00,,,0.00,WUHU216HW,2013-01-08 18:32:00,
2013-01-08 13:37:00,43.6,26.2,30.19,West,270,7.6,8.7,50,0.00,,,0.00,WUHU216HW,2013-01-08 18:37:00,
2013-01-08 13:42:00,43.6,26.2,30.19,North,0,6.0,7.8,50,0.00,,,0.00,WUHU216HW,2013-01-08 18:42:00,
2013-01-08 13:47:00,43.7,26.4,30.19,West,270,0.4,9.6,50,0.00,,,0.00,WUHU216HW,2013-01-08 18:47:00,
2013-01-08 13:52:00,43.7,26.4,30.19,NNW,338,2.7,9.6,50,0.00,,,0.00,WUHU216HW,2013-01-08 18:52:00,
2013-01-08 13:57:00,43.9,27.0,30.19,West,270,2.5,8.3,51,0.00,,,0.00,WUHU216HW,2013-01-08 18:57:00,
2013-01-08 14:02:00,43.9,26.6,30.20,WNW,293,0.4,8.3,50,0.00,,,0.00,WUHU216HW,2013-01-08 19:02:00,
2013-01-08 14:07:00,44.1,27.2,30.20,West,270,7.4,7.4,51,0.00,,,0.00,WUHU216HW,2013-01-08 19:07:00,
2013-01-08 14:12:00,44.1,26.7,30.20,North,0,3.4,7.4,50,0.00,,,0.00,WUHU216HW,2013-01-08 19:12:00,
2013-01-08 14:17:00,44.3,26.8,30.20,NW,315,1.3,7.4,50,0.00,,,0.00,WUHU216HW,2013-01-08 19:17:00,
2013-01-08 14:22:00,44.3,26.3,30.20,North,0,4.7,6.9,49,0.00,,,0.00,WUHU216HW,2013-01-08 19:22:00,
2013-01-08 14:27:00,44.5,27.0,30.21,North,0,2.9,5.1,50,0.00,,,0.00,WUHU216HW,2013-01-08 19:27:00,
2013-01-08 14:32:00,44.3,26.8,30.21,SSE,158,0.4,4.7,50,0.00,,,0.00,WUHU216HW,2013-01-08 19:32:00,
2013-01-08 14:37:00,44.3,26.8,30.21,NNW,338,2.5,4.5,50,0.00,,,0.00,WUHU216HW,2013-01-08 19:37:00,
2013-01-08 14:42:00,44.1,26.7,30.21,NW,315,0.2,6.5,50,0.00,,,0.00,WUHU216HW,2013-01-08 19:42:00,
2013-01-08 14:47:00,43.9,26.6,30.21,North,0,7.4,7.4,50,0.00,,,0.00,WUHU216HW,2013-01-08 19:47:00,
2013-01-08 14:52:00,43.7,26.4,30.21,North,0,5.6,7.6,50,0.00,,,0.00,WUHU216HW,2013-01-08 19:52:00,
2013-01-08 14:57:00,43.6,26.6,30.21,WNW,293,1.8,7.6,51,0.00,,,0.00,WUHU216HW,2013-01-08 19:57:00,
2013-01-08 15:02:00,43.2,26.3,30.21,WSW,248,2.7,5.6,51,0.00,,,0.00,WUHU216HW,2013-01-08 20:02:00,
2013-01-08 15:07:00,43.0,26.2,30.21,WSW,248,2.2,6.0,51,0.00,,,0.00,WUHU216HW,2013-01-08 20:07:00,
2013-01-08 15:12:00,42.8,26.0,30.21,West,270,2.0,6.0,51,0.00,,,0.00,WUHU216HW,2013-01-08 20:12:00,
2013-01-08 15:17:00,42.5,26.1,30.21,NW,315,1.1,6.5,52,0.00,,,0.00,WUHU216HW,2013-01-08 20:17:00,
2013-01-08 15:22:00,42.1,25.3,30.21,West,270,1.8,6.5,51,0.00,,,0.00,WUHU216HW,2013-01-08 20:22:00,
2013-01-08 15:27:00,41.8,25.4,30.22,West,270,1.6,5.6,52,0.00,,,0.00,WUHU216HW,2013-01-08 20:27:00,
2013-01-08 15:32:00,41.4,25.0,30.21,NNW,338,0.2,4.0,52,0.00,,,0.00,WUHU216HW,2013-01-08 20:32:00,
2013-01-08 15:37:00,41.0,24.7,30.21,SE,135,3.1,5.1,52,0.00,,,0.00,WUHU216HW,2013-01-08 20:37:00,
2013-01-08 15:42:00,40.9,24.5,30.21,WSW,248,0.7,5.1,52,0.00,,,0.00,WUHU216HW,2013-01-08 20:42:00,
2013-01-08 15:47:00,40.7,24.8,30.21,WSW,248,2.9,3.8,53,0.00,,,0.00,WUHU216HW,2013-01-08 20:47:00,
2013-01-08 15:52:00,40.5,24.6,30.21,WSW,248,2.9,3.8,53,0.00,,,0.00,WUHU216HW,2013-01-08 20:52:00,
2013-01-08 15:57:00,40.3,24.5,30.21,SSW,203,0.2,3.6,53,0.00,,,0.00,WUHU216HW,2013-01-08 20:57:00,
2013-01-08 16:02:00,40.0,24.1,30.21,NNW,338,1.1,5.1,53,0.00,,,0.00,WUHU216HW,2013-01-08 21:02:00,
2013-01-08 16:07:00,39.8,24.4,30.22,West,270,0.0,5.1,54,0.00,,,0.00,WUHU216HW,2013-01-08 21:07:00,
2013-01-08 16:12:00,39.4,24.0,30.22,SW,225,0.7,3.1,54,0.00,,,0.00,WUHU216HW,2013-01-08 21:12:00,
2013-01-08 16:17:00,39.1,23.7,30.22,NW,315,2.2,3.1,54,0.00,,,0.00,WUHU216HW,2013-01-08 21:17:00,
2013-01-08 16:22:00,38.5,23.2,30.22,North,0,0.0,2.9,54,0.00,,,0.00,WUHU216HW,2013-01-08 21:22:00,
2013-01-08 16:27:00,38.5,23.7,30.22,NNW,338,0.4,4.0,55,0.00,,,0.00,WUHU216HW,2013-01-08 21:27:00,
2013-01-08 16:32:00,38.0,23.1,30.22,West,270,2.5,4.0,55,0.00,,,0.00,WUHU216HW,2013-01-08 21:32:00,
2013-01-08 16:37:00,37.4,22.7,30.22,NW,315,1.3,3.4,55,0.00,,,0.00,WUHU216HW,2013-01-08 21:37:00,
2013-01-08 16:42:00,36.5,22.3,30.23,NNE,23,0.2,3.4,56,0.00,,,0.00,WUHU216HW,2013-01-08 21:42:00,
2013-01-08 16:47:00,36.0,21.8,30.23,NNW,338,0.2,4.3,56,0.00,,,0.00,WUHU216HW,2013-01-08 21:47:00,
2013-01-08 16:52:00,36.0,21.8,30.23,NNE,23,0.0,4.3,56,0.00,,,0.00,WUHU216HW,2013-01-08 21:52:00,
2013-01-08 16:57:00,35.8,21.7,30.23,NNW,338,0.2,1.6,56,0.00,,,0.00,WUHU216HW,2013-01-08 21:57:00,
2013-01-08 17:02:00,35.6,21.5,30.23,West,270,2.2,2.2,56,0.00,,,0.00,WUHU216HW,2013-01-08 22:02:00,
2013-01-08 17:07:00,35.3,21.2,30.23,WSW,248,2.2,2.2,56,0.00,,,0.00,WUHU216HW,2013-01-08 22:07:00,
2013-01-08 17:12:00,34.7,20.6,30.23,WNW,293,2.7,3.6,56,0.00,,,0.00,WUHU216HW,2013-01-08 22:12:00,
2013-01-08 17:17:00,34.2,20.1,30.23,NNW,338,2.7,3.6,56,0.00,,,0.00,WUHU216HW,2013-01-08 22:17:00,
2013-01-08 17:22:00,34.0,19.9,30.23,WNW,293,0.0,3.1,56,0.00,,,0.00,WUHU216HW,2013-01-08 22:22:00,
2013-01-08 17:27:00,33.7,19.5,30.24,NNW,338,0.0,3.1,56,0.00,,,0.00,WUHU216HW,2013-01-08 22:27:00,
2013-01-08 17:32:00,33.5,19.4,30.24,NNE,23,1.6,1.6,56,0.00,,,0.00,WUHU216HW,2013-01-08 22:32:00,
2013-01-08 17:37:00,33.5,19.4,30.24,NW,315,0.4,1.6,56,0.00,,,0.00,WUHU216HW,2013-01-08 22:37:00,
2013-01-08 17:42:00,33.3,19.2,30.24,NNW,338,1.1,2.0,56,0.00,,,0.00,WUHU216HW,2013-01-08 22:42:00,
2013-01-08 17:47:00,32.9,18.9,30.25,NNW,338,0.7,2.0,56,0.00,,,0.00,WUHU216HW,2013-01-08 22:47:00,
2013-01-08 17:52:00,32.6,18.5,30.25,North,0,0.0,1.1,56,0.00,,,0.00,WUHU216HW,2013-01-08 22:52:00,
2013-01-08 17:57:00,32.2,18.3,30.25,NNW,338,3.4,3.4,56,0.00,,,0.00,WUHU216HW,2013-01-08 22:57:00,
2013-01-08 18:02:00,31.7,16.8,30.25,North,0,0.0,3.4,54,0.00,,,0.00,WUHU216HW,2013-01-08 23:02:00,
2013-01-08 18:07:00,31.3,16.6,30.25,NNW,338,0.0,3.4,54,0.00,,,0.00,WUHU216HW,2013-01-08 23:07:00,
2013-01-08 18:12:00,31.0,16.2,30.26,WNW,293,1.6,1.6,54,0.00,,,0.00,WUHU216HW,2013-01-08 23:12:00,
2013-01-08 18:17:00,30.6,15.5,30.26,WNW,293,0.0,1.6,53,0.00,,,0.00,WUHU216HW,2013-01-08 23:17:00,
2013-01-08 18:22:00,30.4,15.3,30.26,North,0,0.0,1.6,53,0.00,,,0.00,WUHU216HW,2013-01-08 23:22:00,
2013-01-08 18:27:00,30.1,14.5,30.26,NNW,338,0.0,1.1,52,0.00,,,0.00,WUHU216HW,2013-01-08 23:27:00,
2013-01-08 18:32:00,29.9,14.4,30.26,NNW,338,0.0,0.4,52,0.00,,,0.00,WUHU216HW,2013-01-08 23:32:00,
2013-01-08 18:37:00,29.5,14.0,30.27,NW,315,0.0,0.2,52,0.00,,,0.00,WUHU216HW,2013-01-08 23:37:00,
2013-01-08 18:42:00,29.2,13.7,30.26,WSW,248,0.0,0.2,52,0.00,,,0.00,WUHU216HW,2013-01-08 23:42:00,
2013-01-08 18:47:00,29.0,13.1,30.27,SW,225,0.2,0.2,51,0.00,,,0.00,WUHU216HW,2013-01-08 23:47:00,
2013-01-08 18:52:00,28.4,12.2,30.27,WSW,248,0.0,0.2,50,0.00,,,0.00,WUHU216HW,2013-01-08 23:52:00,
2013-01-08 18:57:00,28.3,11.5,30.28,NNW,338,0.0,0.2,49,0.00,,,0.00,WUHU216HW,2013-01-08 23:57:00,
2013-01-08 19:02:00,27.7,10.5,30.28,East,90,0.0,0.0,48,0.00,,,0.00,WUHU216HW,2013-01-09 00:02:00,
2013-01-08 19:07:00,27.4,9.2,30.28,East,90,0.0,0.0,46,0.00,,,0.00,WUHU216HW,2013-01-09 00:07:00,
2013-01-08 19:12:00,27.2,8.6,30.28,East,90,0.0,0.0,45,0.00,,,0.00,WUHU216HW,2013-01-09 00:12:00,
2013-01-08 19:17:00,27.0,8.4,30.29,NNE,23,0.0,0.2,45,0.00,,,0.00,WUHU216HW,2013-01-09 00:17:00,
2013-01-08 19:22:00,26.8,1.4,30.29,NNE,23,0.0,0.2,33,0.00,,,0.00,WUHU216HW,2013-01-09 00:22:00,
2013-01-08 19:27:00,26.6,3.1,30.29,NNE,23,0.0,0.0,36,0.00,,,0.00,WUHU216HW,2013-01-09 00:27:00,
2013-01-08 19:32:00,26.6,5.0,30.29,NNE,23,0.0,0.0,39,0.00,,,0.00,WUHU216HW,2013-01-09 00:32:00,
2013-01-08 19:37:00,26.3,4.0,30.29,NNE,23,0.0,0.0,38,0.00,,,0.00,WUHU216HW,2013-01-09 00:37:00,
2013-01-08 19:42:00,26.3,0.3,30.30,NNE,23,0.0,0.0,32,0.00,,,0.00,WUHU216HW,2013-01-09 00:42:00,
2013-01-08 19:47:00,26.3,1.5,30.30,NNE,23,0.0,0.0,34,0.00,,,0.00,WUHU216HW,2013-01-09 00:47:00,
2013-01-08 19:52:00,26.1,2.0,30.29,NNE,23,0.0,0.0,35,0.00,,,0.00,WUHU216HW,2013-01-09 00:52:00,
2013-01-08 19:57:00,26.3,-3.5,30.30,NNE,23,0.0,0.0,27,0.00,,,0.00,WUHU216HW,2013-01-09 00:57:00,
2013-01-08 20:02:00,26.1,-2.0,30.30,NNE,23,0.0,0.0,29,0.00,,,0.00,WUHU216HW,2013-01-09 01:02:00,
2013-01-08 20:07:00,25.7,-0.2,30.30,NNE,23,0.0,0.0,32,0.00,,,0.00,WUHU216HW,2013-01-09 01:07:00,
2013-01-08 20:12:00,25.6,-0.4,30.30,North,0,0.0,0.0,32,0.00,,,0.00,WUHU216HW,2013-01-09 01:12:00,
2013-01-08 20:17:00,25.6,-0.4,30.30,WNW,293,0.0,0.4,32,0.00,,,0.00,WUHU216HW,2013-01-09 01:17:00,
2013-01-08 20:21:00,26.3,-16.1,30.30,North,0,0.4,0.4,15,0.00,,,0.00,WUHU216HW,2013-01-09 01:21:00,
2013-01-08 20:26:00,25.9,-4.7,30.30,North,0,0.0,0.4,26,0.00,,,0.00,WUHU216HW,2013-01-09 01:26:00,
2013-01-08 20:31:00,25.4,-1.7,30.30,NW,315,0.0,0.4,30,0.00,,,0.00,WUHU216HW,2013-01-09 01:31:00,
2013-01-08 20:36:00,25.2,-0.6,30.30,West,270,0.4,0.4,32,0.00,,,0.00,WUHU216HW,2013-01-09 01:36:00,
2013-01-08 20:41:00,25.9,-21.9,30.30,NNE,23,0.9,1.1,11,0.00,,,0.00,WUHU216HW,2013-01-09 01:41:00,
2013-01-08 20:46:00,25.6,-9.1,30.30,West,270,0.0,1.3,21,0.00,,,0.00,WUHU216HW,2013-01-09 01:46:00,
2013-01-08 20:51:00,25.6,-5.7,30.29,WNW,293,0.0,1.3,25,0.00,,,0.00,WUHU216HW,2013-01-09 01:51:00,
2013-01-08 20:56:00,25.9,-15.1,30.29,North,0,0.0,0.4,16,0.00,,,0.00,WUHU216HW,2013-01-09 01:56:00,
2013-01-08 21:01:00,25.9,-16.5,30.29,ENE,68,0.4,0.4,15,0.00,,,0.00,WUHU216HW,2013-01-09 02:01:00,
2013-01-08 21:06:00,25.7,-11.1,30.29,NNE,23,0.0,0.4,19,0.00,,,0.00,WUHU216HW,2013-01-09 02:06:00,
2013-01-08 21:11:00,25.7,-15.2,30.29,NNE,23,0.0,0.4,16,0.00,,,0.00,WUHU216HW,2013-01-09 02:11:00,
2013-01-08 21:16:00,25.9,-21.9,30.29,NNE,23,0.0,0.0,11,0.00,,,0.00,WUHU216HW,2013-01-09 02:16:00,
2013-01-08 21:21:00,25.7,-20.7,30.29,North,0,0.0,0.0,12,0.00,,,0.00,WUHU216HW,2013-01-09 02:21:00,
2013-01-08 21:26:00,25.6,-14.0,30.29,North,0,0.0,0.0,17,0.00,,,0.00,WUHU216HW,2013-01-09 02:26:00,
2013-01-08 21:31:00,25.4,-10.2,30.29,North,0,0.0,0.0,20,0.00,,,0.00,WUHU216HW,2013-01-09 02:31:00,
2013-01-08 21:36:00,25.0,-8.7,30.29,NW,315,0.0,0.0,22,0.00,,,0.00,WUHU216HW,2013-01-09 02:36:00,
2013-01-08 21:41:00,24.7,-5.7,30.29,WNW,293,0.4,0.4,26,0.00,,,0.00,WUHU216HW,2013-01-09 02:41:00,
2013-01-08 21:46:00,24.3,-5.1,30.29,NW,315,0.4,0.4,27,0.00,,,0.00,WUHU216HW,2013-01-09 02:46:00,
2013-01-08 21:51:00,24.1,-6.1,30.29,NW,315,0.0,0.4,26,0.00,,,0.00,WUHU216HW,2013-01-09 02:51:00,
2013-01-08 21:56:00,24.8,-21.4,30.30,North,0,0.0,0.4,12,0.00,,,0.00,WUHU216HW,2013-01-09 02:56:00,
2013-01-08 22:01:00,25.0,-23.9,30.30,NNW,338,0.0,0.7,7,0.00,,,0.00,WUHU216HW,2013-01-09 03:01:00,
2013-01-08 22:06:00,25.0,-23.9,30.29,NNE,23,0.2,0.7,10,0.00,,,0.00,WUHU216HW,2013-01-09 03:06:00,
2013-01-08 22:11:00,25.0,-23.9,30.30,NNE,23,0.0,0.4,10,0.00,,,0.00,WUHU216HW,2013-01-09 03:11:00,
2013-01-08 22:16:00,24.8,-17.4,30.30,NNE,23,0.0,0.4,15,0.00,,,0.00,WUHU216HW,2013-01-09 03:16:00,
2013-01-08 22:21:00,24.7,-13.5,30.30,North,0,0.0,0.0,18,0.00,,,0.00,WUHU216HW,2013-01-09 03:21:00,
2013-01-08 22:26:00,24.1,-10.3,30.30,SSE,158,0.0,0.0,21,0.00,,,0.00,WUHU216HW,2013-01-09 03:26:00,
2013-01-08 22:31:00,23.9,-8.8,30.30,SSE,158,0.0,0.0,23,0.00,,,0.00,WUHU216HW,2013-01-09 03:31:00,
2013-01-08 22:36:00,24.1,-19.2,30.30,SSE,158,0.0,0.0,14,0.00,,,0.00,WUHU216HW,2013-01-09 03:36:00,
2013-01-08 22:41:00,24.5,-24.4,30.30,SSE,158,0.0,0.0,9,0.00,,,0.00,WUHU216HW,2013-01-09 03:41:00,
2013-01-08 22:46:00,24.5,-23.0,30.30,SSE,158,0.0,0.0,11,0.00,,,0.00,WUHU216HW,2013-01-09 03:46:00,
2013-01-08 22:51:00,24.5,-21.7,30.30,SSE,158,0.0,0.0,12,0.00,,,0.00,WUHU216HW,2013-01-09 03:51:00,
2013-01-08 22:56:00,24.7,-24.3,30.30,SSE,158,0.0,0.0,7,0.00,,,0.00,WUHU216HW,2013-01-09 03:56:00,
2013-01-08 23:01:00,24.5,-23.0,30.31,SSE,158,0.0,0.0,11,0.00,,,0.00,WUHU216HW,2013-01-09 04:01:00,
2013-01-08 23:06:00,24.5,-21.7,30.31,SSE,158,0.0,0.0,12,0.00,,,0.00,WUHU216HW,2013-01-09 04:06:00,
2013-01-08 23:11:00,24.1,-17.9,30.31,SSE,158,0.0,0.0,15,0.00,,,0.00,WUHU216HW,2013-01-09 04:11:00,
2013-01-08 23:16:00,23.9,-15.4,30.31,South,180,0.0,0.0,17,0.00,,,0.00,WUHU216HW,2013-01-09 04:16:00,
2013-01-08 23:21:00,23.8,-15.6,30.31,NNW,338,0.0,0.0,17,0.00,,,0.00,WUHU216HW,2013-01-09 04:21:00,
2013-01-08 23:26:00,23.6,-14.3,30.31,NNW,338,0.0,0.0,18,0.00,,,0.00,WUHU216HW,2013-01-09 04:26:00,
2013-01-08 23:31:00,23.9,-23.5,30.31,NNW,338,0.0,0.0,11,0.00,,,0.00,WUHU216HW,2013-01-09 04:31:00,
2013-01-08 23:36:00,23.9,-23.5,30.31,North,0,0.0,0.0,11,0.00,,,0.00,WUHU216HW,2013-01-09 04:36:00,
2013-01-08 23:41:00,24.1,-24.6,30.31,North,0,0.0,0.0,4,0.00,,,0.00,WUHU216HW,2013-01-09 04:41:00,
2013-01-08 23:46:00,24.5,-24.4,30.32,NNW,338,0.0,0.4,1,0.00,,,0.00,WUHU216HW,2013-01-09 04:46:00,
2013-01-08 23:51:00,24.7,-24.3,30.32,North,0,0.0,0.4,1,0.00,,,0.00,WUHU216HW,2013-01-09 04:51:00,
2013-01-08 23:56:00,24.7,-24.3,30.32,NNW,338,0.0,0.0,2,0.00,,,0.00,WUHU216HW,2013-01-09 04:56:00,